When you browse on this site, cookies collect data to enhance your experience and personalize the content and advertising you see.
Visit our Privacy Policy to learn more. By continuing to use the site, you agree to this use of cookies and data.
  • en France
  • Liste des pays
  • À 7 jours
  • Température de l'eau
  • Carte météo
  • Widgets météo
  • user-avatar
    Se connecter

    Météo par heure à Radcliffe

    Ce jour, 30 Mai, Samedi

    Heure Température Précipitation Vent Pression Humidité
    00:00 +12°C° 0 mm 3 m/s 761 mmHg 72%
    01:00 +12°C° 0 mm 2 m/s 761 mmHg 71%
    02:00 +12°C° 0 mm 2 m/s 761 mmHg 71%
    03:00 +10°C° 0 mm 2 m/s 761 mmHg 70%
    04:00 +10°C° 0 mm 2 m/s 761 mmHg 68%
    05:00 +12°C° 0 mm 2 m/s 761 mmHg 66%
    06:00 +12°C° 0 mm 2 m/s 761 mmHg 64%
    07:00 +13°C° 0 mm 3 m/s 761 mmHg 58%
    08:00 +14°C° 0 mm 3 m/s 761 mmHg 53%
    09:00 +17°C° 0 mm 4 m/s 761 mmHg 48%
    10:00 +18°C° 0 mm 4 m/s 761 mmHg 48%
    11:00 +19°C° 0 mm 4 m/s 761 mmHg 48%
    12:00 +21°C° 0 mm 4 m/s 760 mmHg 49%
    13:00 +21°C° 0 mm 4 m/s 760 mmHg 50%
    14:00 +21°C° 0 mm 4 m/s 760 mmHg 52%
    15:00 +22°C° 0 mm 4 m/s 760 mmHg 54%
    16:00 +21°C° 0 mm 4 m/s 760 mmHg 57%
    17:00 +20°C° 0 mm 5 m/s 760 mmHg 60%
    18:00 +20°C° 0 mm 5 m/s 759 mmHg 63%
    19:00 +17°C° 0 mm 5 m/s 760 mmHg 65%
    20:00 +16°C° 0 mm 5 m/s 760 mmHg 68%
    21:00 +14°C° 0 mm 5 m/s 760 mmHg 71%
    22:00 +13°C° 0 mm 4 m/s 760 mmHg 74%
    23:00 +13°C° 0 mm 4 m/s 761 mmHg 77%

    Demain, 31 Mai, Dimanche

    Heure Température Précipitation Vent Pression Humidité
    00:00 +12°C° 0 mm 4 m/s 761 mmHg 80%
    01:00 +11°C° 0 mm 3 m/s 761 mmHg 81%
    02:00 +11°C° 0 mm 3 m/s 761 mmHg 82%
    03:00 +10°C° 0 mm 3 m/s 761 mmHg 82%
    04:00 +11°C° 0 mm 3 m/s 761 mmHg 80%
    05:00 +11°C° 0 mm 3 m/s 761 mmHg 78%
    06:00 +12°C° 0 mm 4 m/s 761 mmHg 75%
    07:00 +14°C° 0 mm 4 m/s 761 mmHg 70%
    08:00 +15°C° 0 mm 4 m/s 761 mmHg 65%
    09:00 +18°C° 0 mm 4 m/s 761 mmHg 60%
    10:00 +19°C° 0 mm 4 m/s 761 mmHg 57%
    11:00 +20°C° 0 mm 4 m/s 761 mmHg 54%
    12:00 +21°C° 0 mm 4 m/s 761 mmHg 51%
    13:00 +21°C° 0 mm 4 m/s 761 mmHg 51%
    14:00 +21°C° 0 mm 4 m/s 761 mmHg 51%
    15:00 +22°C° 0 mm 4 m/s 761 mmHg 51%
    16:00 +21°C° 0 mm 4 m/s 761 mmHg 53%
    17:00 +20°C° 0 mm 4 m/s 761 mmHg 55%
    18:00 +20°C° 0 mm 4 m/s 761 mmHg 57%
    19:00 +18°C° 0 mm 4 m/s 761 mmHg 60%
    20:00 +17°C° 0 mm 4 m/s 762 mmHg 63%
    21:00 +14°C° 0 mm 4 m/s 762 mmHg 66%
    22:00 +13°C° 0 mm 4 m/s 762 mmHg 70%
    23:00 +13°C° 0 mm 3 m/s 762 mmHg 73%

    Après-demain, 1 Juin, Lundi

    Heure Température Précipitation Vent Pression Humidité
    00:00 +12°C° 0 mm 3 m/s 762 mmHg 77%
    01:00 +11°C° 0 mm 3 m/s 762 mmHg 79%
    02:00 +12°C° 0 mm 2 m/s 762 mmHg 81%
    03:00 +10°C° 0 mm 2 m/s 762 mmHg 83%
    04:00 +12°C° 0 mm 2 m/s 762 mmHg 80%
    05:00 +11°C° 0 mm 3 m/s 762 mmHg 78%
    06:00 +12°C° 0 mm 3 m/s 762 mmHg 76%
    07:00 +13°C° 0 mm 3 m/s 762 mmHg 72%
    08:00 +15°C° 0 mm 4 m/s 762 mmHg 68%
    09:00 +17°C° 0 mm 4 m/s 762 mmHg 64%
    10:00 +18°C° 0 mm 4 m/s 762 mmHg 61%
    11:00 +19°C° 0 mm 4 m/s 762 mmHg 57%
    12:00 +20°C° 0 mm 4 m/s 762 mmHg 53%
    13:00 +21°C° 0 mm 4 m/s 762 mmHg 51%
    14:00 +21°C° 0 mm 4 m/s 762 mmHg 49%
    15:00 +22°C° 0 mm 5 m/s 761 mmHg 47%
    16:00 +21°C° 0 mm 4 m/s 761 mmHg 49%
    17:00 +20°C° 0 mm 4 m/s 761 mmHg 51%
    18:00 +19°C° 0 mm 4 m/s 761 mmHg 53%
    19:00 +17°C° 0 mm 4 m/s 761 mmHg 58%
    20:00 +15°C° 0 mm 4 m/s 761 mmHg 62%
    21:00 +13°C° 0 mm 3 m/s 762 mmHg 67%
    22:00 +12°C° 0 mm 3 m/s 761 mmHg 70%
    23:00 +12°C° 0 mm 2 m/s 761 mmHg 73%

    2 Juin, Mardi

    Heure Température Précipitation Vent Pression Humidité
    00:00 +10°C° 0 mm 2 m/s 761 mmHg 76%
    01:00 +10°C° 0 mm 2 m/s 761 mmHg 78%
    02:00 +11°C° 0 mm 1 m/s 760 mmHg 80%
    03:00 +10°C° 0 mm 1 m/s 760 mmHg 82%
    04:00 +11°C° 0 mm 1 m/s 760 mmHg 80%
    05:00 +12°C° 0 mm 1 m/s 760 mmHg 78%
    06:00 +12°C° 0 mm 1 m/s 760 mmHg 76%
    07:00 +14°C° 0 mm 1 m/s 759 mmHg 68%
    08:00 +16°C° 0 mm 1 m/s 759 mmHg 59%
    09:00 +19°C° 0 mm 1 m/s 759 mmHg 50%
    10:00 +20°C° 0 mm 1 m/s 758 mmHg 46%
    11:00 +22°C° 0 mm 1 m/s 758 mmHg 43%
    12:00 +23°C° 0 mm 1 m/s 758 mmHg 39%
    13:00 +23°C° 0 mm 2 m/s 757 mmHg 41%
    14:00 +23°C° 0 mm 2 m/s 756 mmHg 42%
    15:00 +22°C° 0 mm 3 m/s 756 mmHg 44%
    16:00 +21°C° 0 mm 3 m/s 755 mmHg 50%
    17:00 +19°C° 0 mm 4 m/s 755 mmHg 56%
    18:00 +18°C° 0 mm 4 m/s 754 mmHg 62%
    19:00 +17°C° 0 mm 3 m/s 754 mmHg 68%
    20:00 +14°C° 0 mm 3 m/s 754 mmHg 74%
    21:00 +14°C° 0 mm 2 m/s 754 mmHg 79%
    22:00 +14°C° 0 mm 2 m/s 754 mmHg 82%
    23:00 +13°C° 0 mm 2 m/s 753 mmHg 84%

    3 Juin, Mercredi

    Heure Température Précipitation Vent Pression Humidité
    00:00 +13°C° 0 mm 1 m/s 753 mmHg 87%
    01:00 +13°C° 0.1 mm 2 m/s 753 mmHg 87%
    02:00 +13°C° 0.1 mm 2 m/s 753 mmHg 88%
    03:00 +12°C° 0.1 mm 3 m/s 752 mmHg 88%
    04:00 +12°C° 0.3 mm 4 m/s 752 mmHg 88%
    05:00 +10°C° 0.3 mm 5 m/s 752 mmHg 87%
    06:00 +10°C° 0.3 mm 6 m/s 752 mmHg 86%
    07:00 +10°C° 0.3 mm 6 m/s 752 mmHg 84%
    08:00 +10°C° 0.3 mm 6 m/s 752 mmHg 82%
    09:00 +10°C° 0.3 mm 6 m/s 752 mmHg 80%
    10:00 +11°C° 0.1 mm 7 m/s 752 mmHg 78%
    11:00 +11°C° 0.1 mm 7 m/s 752 mmHg 76%
    12:00 +11°C° 0.1 mm 7 m/s 752 mmHg 73%
    13:00 +11°C° 0 mm 7 m/s 752 mmHg 71%
    14:00 +12°C° 0 mm 7 m/s 752 mmHg 68%
    15:00 +12°C° 0 mm 7 m/s 752 mmHg 65%
    16:00 +11°C° 0 mm 7 m/s 752 mmHg 66%
    17:00 +11°C° 0 mm 7 m/s 752 mmHg 68%
    18:00 +10°C° 0 mm 7 m/s 752 mmHg 70%
    19:00 +9°C° 0 mm 7 m/s 752 mmHg 72%
    20:00 +8°C° 0 mm 6 m/s 752 mmHg 73%
    21:00 +7°C° 0 mm 6 m/s 752 mmHg 75%
    22:00 +7°C° 0 mm 6 m/s 752 mmHg 75%
    23:00 +7°C° 0 mm 6 m/s 751 mmHg 76%

    4 Juin, Jeudi

    Heure Température Précipitation Vent Pression Humidité
    00:00 +6°C° 0 mm 5 m/s 751 mmHg 77%
    01:00 +6°C° 0 mm 5 m/s 751 mmHg 76%
    02:00 +6°C° 0 mm 5 m/s 750 mmHg 76%
    03:00 +6°C° 0 mm 4 m/s 750 mmHg 76%
    04:00 +7°C° 0 mm 5 m/s 749 mmHg 76%
    05:00 +7°C° 0 mm 5 m/s 749 mmHg 76%
    06:00 +7°C° 0 mm 5 m/s 749 mmHg 75%
    07:00 +8°C° 0 mm 5 m/s 748 mmHg 73%
    08:00 +9°C° 0 mm 5 m/s 748 mmHg 71%
    09:00 +10°C° 0 mm 5 m/s 748 mmHg 70%
    10:00 +12°C° 0 mm 5 m/s 747 mmHg 67%
    11:00 +13°C° 0 mm 5 m/s 747 mmHg 64%
    12:00 +14°C° 0 mm 4 m/s 747 mmHg 62%
    13:00 +14°C° 0 mm 4 m/s 746 mmHg 63%
    14:00 +14°C° 0 mm 4 m/s 746 mmHg 65%
    15:00 +14°C° 0 mm 4 m/s 745 mmHg 66%
    16:00 +14°C° 0 mm 3 m/s 745 mmHg 67%
    17:00 +13°C° 0 mm 3 m/s 744 mmHg 69%
    18:00 +13°C° 0 mm 3 m/s 744 mmHg 70%
    19:00 +13°C° 0 mm 2 m/s 743 mmHg 73%
    20:00 +12°C° 0 mm 2 m/s 743 mmHg 76%
    21:00 +10°C° 0 mm 2 m/s 743 mmHg 79%
    22:00 +9°C° 0 mm 2 m/s 742 mmHg 80%
    23:00 +9°C° 0 mm 2 m/s 741 mmHg 81%
    Voir plus